Location: Buisson
(44.2787°N, 4.9969°E)
Time: 06:39:19
(UTC+00:00)

Cosmos 1937 Rocket - Pass Details

Date: 18 April 2021
Orbit: 747 x 780 km, 74.0° (Epoch: 06 May)

Event Time Altitude Azimuth Distance (km) Brightness Sun altitude
Exits shadow 03:18:15 26° 227° (SW) 1,453 4.3 -15.9°
Maximum altitude 03:21:01 55° 294° (WNW) 897 3.6 -15.5°
Drops below altitude 10° 03:26:03 10° 13° (NNE) 2,273 6.6 -14.7°
Sets 03:28:29 0° 18° (NNE) 3,202 7.5 -14.4°
